Miscellaneous Local Product
Issued by NWS Hastings, NE

Home | Current Version | Previous Version | Text Only | Print | Product List | Glossary Off
Versions: 1 2 3 4 5 6 7 8 9 10 11 12 13 14 15 16 17 18 19 20 21 22 23 24 25 26 27 28 29 30 31 32 33 34 35 36 37 38 39 40 41 42 43 44 45 46 47 48 49 50

000
AXUS43 KGID 220302
MISGRI

GID CWA HOURLY WEATHER ROUNDUP
NATIONAL WEATHER SERVICE HASTINGS NE
1000 PM CDT THU MAY 21 2015

NOTE: "FAIR" INDICATES FEW OR NO CLOUDS BELOW 12,000 FEET WITH NO
SIGNIFICANT WEATHER AND/OR OBSTRUCTIONS TO VISIBILITY.

...SOUTH CENTRAL NEBRASKA...

CITY           SKY/WX    TMP DP  RH WIND       PRES   REMARKS
GRAND ISLAND   PTCLDY    52  41  66 SW3       30.21R
HASTINGS       MOCLDY    57  38  48 S3        30.21R
KEARNEY        MOCLDY    55  39  54 S6        30.21R
ORD            CLEAR     49  40  71 SW5       30.18R
YORK           PTCLDY    59  41  51 CALM      30.20R
AURORA         MOCLDY    60  36  40 CALM      30.19S
LEXINGTON      PTCLDY    53  44  72 S6        30.20R
HOLDREGE       MOCLDY    56  38  51 S6        30.20R
HEBRON         MOCLDY    55  42  60 S6        30.20R

...NEBRASKA PANHANDLE...

CITY           SKY/WX    TMP DP  RH WIND       PRES   REMARKS
CHADRON        CLOUDY    54  45  71 SE8       30.12S
ALLIANCE       CLOUDY    53  44  71 SE12      30.14R
SCOTTSBLUFF    CLOUDY    53  45  74 SE13      30.13R
SIDNEY         CLOUDY    51  44  77 SE20G26   30.16R

...WESTERN AND NORTH CENTRAL NEBRASKA...

CITY           SKY/WX    TMP DP  RH WIND       PRES   REMARKS
VALENTINE      CLEAR     54  36  50 SE8       30.17R
AINSWORTH      CLEAR     52  37  56 SE6       30.18R
ONEILL         CLEAR     58  40  50 CALM      30.18R
BROKEN BOW     PTCLDY    51  42  71 CALM      30.19R
IMPERIAL       CLOUDY    53  44  71 SE6       30.18R
NORTH PLATTE   CLOUDY    55  42  61 S6        30.19R
MCCOOK         CLOUDY    54  42  64 SE8       30.19R

...EASTERN NEBRASKA...

CITY           SKY/WX    TMP DP  RH WIND       PRES   REMARKS
NORFOLK        CLEAR     53  42  66 SW6       30.17R
SO SIOUX CITY  CLEAR     61  36  39 W6        30.13S
TEKAMAH        CLEAR     58  42  55 W8        30.14R
COLUMBUS       CLEAR     61  37  41 SW6       30.21R
ALBION         CLEAR     55  38  52 CALM      30.19R
OMAHA EPPLEY   PTCLDY    65  40  39 SW7       30.15R
OFFUTT AFB     CLEAR     60  42  49 SW6       30.16R
MILLARD        CLEAR     64  41  44 CALM      30.16R
LINCOLN        PTCLDY    61  41  47 SW3       30.20R
NEBRASKA CITY  FAIR      55  38  53 SW7       30.17S
BEATRICE       PTCLDY    58  45  62 SW5       30.19R
FALLS CITY     PTCLDY    59  43  55 SW6       30.18S

...NORTHERN KANSAS...

CITY           SKY/WX    TMP DP  RH WIND       PRES   REMARKS
GOODLAND       CLOUDY    52  45  77 SE7       30.19S
HILL CITY      CLOUDY    53  45  74 S8        30.21R
NORTON         CLEAR     55  37  50 SE7       30.19S
PHILLIPSBURG   CLEAR     57  45  62 E5        30.21S
SMITH CENTER   CLEAR     52  43  71 SE6       30.22R
HAYS           CLOUDY    52  41  66 S8        30.21R
RUSSELL        CLOUDY    51  46  83 S7        30.20R
CONCORDIA      CLOUDY    55  42  61 S7        30.21R
SALINA         PTCLDY    56  47  71 S3        30.22R
TOPEKA         CLEAR     58  49  72 CALM      30.21R



USA.gov is the U.S. government's official web portal to all federal, state and local government web resources and services.